This demonstration page uses our WeatherBlox Daily Observations layout. Learn more.

Hourly Observations for October 13, 2019

Temp ( °F °C ) Dew Point ( °F °C ) Humidity (%) Winds ( mph kmh ) Pressure ( in mb ) Visibility ( mi km ) Precip ( " mm )
12:53 am 00:53 Clear 36 2.2 35 1.7 97 97 Calm 30.06 1018 10 16.09344 0 0
1:53 am 01:53 Clear 35 1.7 34 1.1 96 96 Calm 30.06 1018 10 16.09344 0 0
2:53 am 02:53 Clear 35 1.7 34 1.1 96 96 Calm 30.06 1018 10 16.09344 0 0
3:53 am 03:53 Clear 34 1.1 33 0.6 97 97 Calm 30.06 1018 7 11.265408 0 0
4:53 am 04:53 Clear 32 0 32 0 100 100 Calm 30.06 1018 7 11.265408 0 0
5:53 am 05:53 Clear 31 -0.6 31 -0.6 100 100 Calm 30.03 1017 9 14.484096 0 0
6:53 am 06:53 Clear 31 -0.6 31 -0.6 100 100 Calm 30.06 1018 7 11.265408 0 0
7:53 am 07:53 Sunny with Mist and Fog 32 0 32 0 100 100 E 5 7 30.03 1017 6 9.656064 0 0
8:53 am 08:53 Sunny 39 3.9 38 3.3 96 96 Calm 30.06 1018 10 16.09344 0 0
9:53 am 09:53 Sunny 49 9.4 39 3.9 69 69 Calm 30.03 1017 10 16.09344 0 0
10:53 am 10:53 Sunny 56 13.3 39 3.9 53 53 SW 6 9 30.03 1017 10 16.09344 0 0
11:53 am 11:53 Sunny 60 15.6 36 2.2 41 41 SSW 8 13 30 1016 10 16.09344 0 0
12:53 pm 12:53 Sunny 64 17.8 36 2.2 35 35 VRB 6 9 30 1016 10 16.09344 0 0
1:53 pm 13:53 Sunny 65 18.3 35 1.7 33 33 VRB 7 11 29.97 1015 10 16.09344 0 0
2:53 pm 14:53 Sunny 67 19.4 33 0.6 28 28 SSW 8 13 29.91 1013 10 16.09344 0 0
3:53 pm 15:53 Sunny 68 20 34 1.1 28 28 SW 9 15 29.91 1013 10 16.09344 0 0
4:53 pm 16:53 Sunny 69 20.6 34 1.1 27 27 VRB 6 9 29.91 1013 10 16.09344 0 0
5:53 pm 17:53 Sunny 67 19.4 34 1.1 30 30 SW 6 9 29.91 1013 10 16.09344 0 0
6:53 pm 18:53 Sunny 63 17.2 35 1.7 35 35 SW 6 9 29.91 1013 10 16.09344 0 0
7:53 pm 19:53 Clear 56 13.3 37 2.8 49 49 SW 3 6 29.94 1014 10 16.09344 0 0
8:53 pm 20:53 Clear 56 13.3 37 2.8 49 49 S 6 9 29.94 1014 10 16.09344 0 0
9:53 pm 21:53 Clear 56 13.3 37 2.8 49 49 SSW 5 7 29.94 1014 10 16.09344 0 0
10:53 pm 22:53 Clear 52 11.1 39 3.9 61 61 Calm 29.94 1014 10 16.09344 0 0
11:53 pm 23:53 Clear 46 7.8 40 4.4 79 79 Calm 29.94 1014 10 16.09344 0 0

Powered by AerisWeather